Regional Weather Roundup
Issued by NWS

Home | Current Version | Previous Version | Text Only | Print | Product List | Glossary Off
Versions: 1 2 3 4 5 6 7 8 9 10 11 12 13 14 15 16 17 18 19 20 21 22 23 24 25 26 27 28 29 30 31 32 33 34 35 36 37 38 39 40 41 42 43 44 45 46 47 48 49 50

000
ASUS43 KTOP 290608
RWRKS

WEATHER ROUNDUP FOR KANSAS
NATIONAL WEATHER SERVICE GOODLAND KS
100 AM CDT FRI AUG 29 2014

NOTE:  "FAIR" INDICATES FEW OR NO CLOUDS BELOW 12,000 FEET WITH NO
SIGNIFICANT WEATHER AND/OR OBSTRUCTIONS TO VISIBILITY.

KSZ001>006-013>018-027>032-041>047-290700-
NORTHWEST KANSAS

CITY           SKY/WX    TMP DP  RH WIND       PRES   REMARKS
GOODLAND       CLEAR     59  57  93 W7        30.00S
6HR MIN TEMP:  59; 6HR MAX TEMP:  74;

HAYS           MOCLDY    66  54  63 W17G23    29.90F
HILL CITY      FAIR      67  61  81 SW8       29.92R
6HR MIN TEMP:  67; 6HR MAX TEMP:  82; 6HR PCP: TRACE;

RUSSELL        FAIR      70  63  78 SW12      29.87R
6HR MIN TEMP:  67; 6HR MAX TEMP:  75; 6HR PCP:  0.01;

$$

KSZ061>065-074>080-084>089-290700-
SOUTHWEST KANSAS

CITY           SKY/WX    TMP DP  RH WIND       PRES   REMARKS
DODGE CITY     MOCLDY    68  60  75 SW6       29.96S
6HR MIN TEMP:  66; 6HR MAX TEMP:  84; 6HR PCP: TRACE;

ELKHART          N/A     65  53  65 NW3         N/A
GARDEN CITY    FAIR      62  60  93 W8        29.97R
6HR MIN TEMP:  62; 6HR MAX TEMP:  77; 6HR PCP: TRACE;

GREAT BEND     FAIR      68  61  77 SW10      29.91R
LIBERAL        FAIR      64  54  68 NW6       30.00S
PRATT          RAIN      64  63  94 SW8       29.95R
$$

KSZ066>073-081>083-090>101-290700-
SOUTHEAST KANSAS

CITY           SKY/WX    TMP DP  RH WIND       PRES   REMARKS
CHANUTE        FAIR      77  63  61 W9        29.92R
6HR MIN TEMP:  74; 6HR MAX TEMP:  90;

COFFEYVILLE    FAIR      77  63  61 W9        29.91R
6HR MIN TEMP:  75; 6HR MAX TEMP:  90;

HUTCHINSON     MOCLDY    71  62  73 SW12      29.90R
6HR MIN TEMP:  70; 6HR MAX TEMP:  78; 6HR PCP: TRACE;

MEDICINE LODGE   N/A     68  67  96 CALM      29.97R
NEWTON         MOCLDY    68  57  68 SW13      29.91R
PARSONS        FAIR      76  62  62 SW5       29.93R
6HR MIN TEMP:  75; 6HR MAX TEMP:  89;

WICHITA INTL   CLOUDY    68  65  90 SE9       29.88F
6HR MIN TEMP:  68; 6HR MAX TEMP:  77; 6HR PCP:  0.04;

WICHITA JABRA  FAIR      69  64  84 SE8       29.87F
6HR MIN TEMP:  68; 6HR MAX TEMP:  77; 6HR PCP:  0.12;

WICHITA MCCONL FAIR      68  68 100 SE9       29.89F
WINFIELD       MOCLDY    71  67  87 SE7       29.89F
6HR MIN TEMP:  67; 6HR MAX TEMP:  76; 6HR PCP:  0.37;

$$

KSZ007>012-019>026-033>040-048>060-102>105-290700-
NORTHEAST KANSAS

CITY           SKY/WX    TMP DP  RH WIND       PRES   REMARKS
CONCORDIA      FAIR      72  68  87 CALM      29.85R
6HR MIN TEMP:  71; 6HR MAX TEMP:  79; 6HR PCP:  0.05;

EMPORIA        FAIR      75  63  66 S13       29.87F
6HR MIN TEMP:  75; 6HR MAX TEMP:  84;

LAWRENCE       FAIR      73  64  73 SE6       29.88S
6HR MIN TEMP:  73; 6HR MAX TEMP:  93;

MANHATTAN      CLOUDY    74  67  78 SW3       29.85S
6HR MIN TEMP:  73; 6HR MAX TEMP:  80;

MARYSVILLE     CLOUDY    72  68  88 E3        29.85F
OLATHE IND     FAIR      71  63  75 S5        29.90S
6HR MIN TEMP:  71; 6HR MAX TEMP:  88;

OLATHE EXE     FAIR      73  63  70 S5        29.90S
6HR MIN TEMP:  73; 6HR MAX TEMP:  86;

SALINA         FAIR      75  65  70 SW12      29.85R
6HR MIN TEMP:  73; 6HR MAX TEMP:  83; 6HR PCP: TRACE;

TOPEKA BILLARD FAIR      77  65  66 E6        29.87S
6HR MIN TEMP:  77; 6HR MAX TEMP:  90;

TOPEKA FORBES  FAIR      75  63  66 SE7       29.87F
6HR MIN TEMP:  75; 6HR MAX TEMP:  89;

$$


USA.gov is the U.S. government's official web portal to all federal, state and local government web resources and services.